IRIS

Last updated on Sun Apr 12 2026 00:03:41 GMT+0000 (Coordinated Universal Time)

1 39197U 13033A 26101.42665194 .00000968 00000+0 11727-3 0 9999 2 39197 97.9381 300.9008 0024569 174.2238 185.9265 14.85747977690461
UTC large
Height (km)
Speed (km/s)
/
Latitude / Longitude
Inclination (degrees)
Orbital Period (minutes)
Azimuth
Elevation
Range (km)
Doppler Factor

Next 0 passes for location: London (51.5072 / 0.1276)

Sorry there are no passes over London.
IRIS